This is the latest recevied weather packets stored in our database for station/object KD8BMB. If no packets are shown the sender has not sent any weather packets the latest 1 day(s).
| Time | Temp. | Humidity | Pressure | Rain* | Wind** | Luminosity | Snow |
|---|---|---|---|---|---|---|---|
| 1778019929 | 13.33° C | 41% | 1006.7 hPa | 0 mm | 4.47 m/s, 324° | 86 W/m² | - |
| 1778019626 | 13.33° C | 43% | 1006.7 hPa | 0 mm | 0.45 m/s, 238° | 95 W/m² | - |
| 1778019323 | 13.33° C | 42% | 1006.6 hPa | 0 mm | 1.34 m/s, 311° | 102 W/m² | - |
| 1778019019 | 13.33° C | 43% | 1006.5 hPa | 0 mm | 2.24 m/s, 249° | 105 W/m² | - |
| 1778018717 | 13.33° C | 42% | 1006.7 hPa | 0 mm | 1.34 m/s, 265° | 117 W/m² | - |
| 1778018414 | 13.33° C | 41% | 1006.8 hPa | 0 mm | 3.13 m/s, 256° | 127 W/m² | - |
| 1778018126 | 13.33° C | 42% | 1006.7 hPa | 0 mm | 4.92 m/s, 243° | 136 W/m² | - |
| 1778017810 | 13.89° C | 42% | 1006.5 hPa | 0 mm | 1.34 m/s, 249° | 135 W/m² | - |
| 1778017508 | 13.89° C | 43% | 1006.7 hPa | 0 mm | 0.89 m/s, 206° | 143 W/m² | - |
| 1778017204 | 13.33° C | 42% | 1006.7 hPa | 0 mm | 2.24 m/s, 319° | 144 W/m² | - |
| 1778016902 | 13.89° C | 44% | 1006.7 hPa | 0 mm | 0.89 m/s, 236° | 142 W/m² | - |
| 1778016598 | 13.89° C | 42% | 1006.4 hPa | 0 mm | 2.68 m/s, 226° | 142 W/m² | - |
| 1778016295 | 13.89° C | 43% | 1006.6 hPa | 0 mm | 0.89 m/s, 285° | 137 W/m² | - |
| 1778015992 | 13.89° C | 44% | 1006.6 hPa | 0 mm | 0.89 m/s, 290° | 141 W/m² | - |
| 1778015689 | 13.89° C | 43% | 1006.8 hPa | 0 mm | 1.34 m/s, 246° | 146 W/m² | - |
| 1778015385 | 13.89° C | 44% | 1006.7 hPa | 0 mm | 1.34 m/s, 259° | 154 W/m² | - |
| 1778015083 | 13.89° C | 44% | 1006.7 hPa | 0 mm | 0.89 m/s, 282° | 177 W/m² | - |
| 1778014779 | 13.89° C | 46% | 1006.6 hPa | 0 mm | 0.45 m/s, 198° | 189 W/m² | - |
| 1778014478 | 13.89° C | 45% | 1006.6 hPa | 0 mm | 1.79 m/s, 294° | 201 W/m² | - |
| 1778014174 | 13.89° C | 45% | 1006.6 hPa | 0 mm | 1.34 m/s, 236° | 225 W/m² | - |
| 1778013872 | 14.44° C | 49% | 1006.5 hPa | 0 mm | 1.79 m/s, 247° | 221 W/m² | - |
| 1778013569 | 13.89° C | 50% | 1006.5 hPa | 0 mm | 0.89 m/s, 229° | 215 W/m² | - |
| 1778013265 | 13.89° C | 49% | 1006.5 hPa | 0 mm | 1.34 m/s, 307° | 216 W/m² | - |
| 1778012962 | 14.44° C | 48% | 1006.5 hPa | 0 mm | 0.89 m/s, 199° | 257 W/m² | - |
| 1778012658 | 13.89° C | 52% | 1006.8 hPa | 0 mm | 2.24 m/s, 241° | 268 W/m² | - |
* Rain latest hour (hover to see other rain measurements)
** Current wind speed in m/s (hover to see current wind gust speed)